GW6490 Weather Reports


time (UTC)temp
C
wind
direction
speed
KPH
gust
KPH
rain 1hr
cm
rain 24hr
cm
rain mn
cm
humidity
%
barometer
mb
20260502170436 12 112 0.0 0.0 0.00 0.00 0.00 30 1022.5
20260502163919 11 102 3.2 3.2 0.00 0.00 0.00 32 1023.1
20260502163415 11 79 1.6 1.6 0.00 0.00 0.00 32 1023.2
20260502162913 10 100 0.0 1.6 0.00 0.00 0.00 33 1023.2
20260502162409 10 188 3.2 3.2 0.00 0.00 0.00 34 1023.3
20260502161907 10 124 1.6 1.6 0.00 0.00 0.00 35 1023.1
20260502161402 10 139 1.6 3.2 0.00 0.00 0.00 34 1023.3
20260502160900 8 86 0.0 1.6 0.00 0.00 0.00 35 1023.3
20260502160359 9 112 0.0 0.0 0.00 0.00 0.00 34 1023.4
20260502152340 5 102 0.0 0.0 0.00 0.00 0.00 45 1023.9
20260502151837 6 232 1.6 1.6 0.00 0.00 0.00 44 1023.7
20260502151333 5 93 0.0 0.0 0.00 0.00 0.00 46 1023.9
20260502150831 5 87 0.0 0.0 0.00 0.00 0.00 48 1023.8
20260502150328 5 110 0.0 0.0 0.00 0.00 0.00 48 1024.0
20260502130716 -3 102 0.0 0.0 0.00 0.00 0.00 78 1023.8
20260502130214 -3 104 0.0 0.0 0.00 0.00 0.00 77 1023.7
20260502123700 -3 98 0.0 0.0 0.00 0.00 0.00 79 1023.5
20260502123156 -3 97 0.0 0.0 0.00 0.00 0.00 79 1023.7
20260502122652 -3 98 0.0 0.0 0.00 0.00 0.00 78 1023.7
20260502122149 -3 93 0.0 0.0 0.00 0.00 0.00 80 1023.7
20260502121647 -3 96 0.0 0.0 0.00 0.00 0.00 80 1023.8
20260502121145 -3 100 0.0 0.0 0.00 0.00 0.00 80 1023.5
20260502120641 -3 101 0.0 0.0 0.00 0.00 0.00 79 1023.5
20260502120138 -3 101 0.0 0.0 0.00 0.00 0.00 79 1023.4
20260502115635 -3 101 0.0 0.0 0.00 0.00 0.00 78 1023.7
20260502115131 -3 101 0.0 0.0 0.00 0.00 0.00 77 1023.7
20260502114627 -3 101 0.0 0.0 0.00 0.00 0.00 76 1023.8
20260502114125 -3 102 0.0 0.0 0.00 0.00 0.00 76 1023.8
20260502113622 -3 103 0.0 0.0 0.00 0.00 0.00 75 1023.7
20260502113121 -3 115 0.0 0.0 0.00 0.00 0.00 74 1023.7
20260502112618 -3 120 0.0 0.0 0.00 0.00 0.00 73 1023.8
20260502112115 -2 117 0.0 0.0 0.00 0.00 0.00 73 1023.5
20260502111613 -2 111 0.0 0.0 0.00 0.00 0.00 73 1023.5
20260502111110 -2 119 0.0 0.0 0.00 0.00 0.00 74 1023.7
20260502110608 -2 102 0.0 0.0 0.00 0.00 0.00 72 1023.8
20260502110105 -2 108 0.0 0.0 0.00 0.00 0.00 71 1023.7
20260502105602 -2 152 0.0 1.6 0.00 0.00 0.00 72 1023.8
20260502105059 -2 83 0.0 0.0 0.00 0.00 0.00 71 1023.7
20260502104556 -2 104 0.0 0.0 0.00 0.00 0.00 72 1023.7
20260502104054 -2 110 0.0 0.0 0.00 0.00 0.00 73 1023.5
20260502103551 -2 106 0.0 0.0 0.00 0.00 0.00 73 1023.5
20260502103049 -2 100 0.0 0.0 0.00 0.00 0.00 73 1023.5
20260502102545 -2 100 0.0 0.0 0.00 0.00 0.00 71 1023.7
20260502102043 -1 104 0.0 0.0 0.00 0.00 0.00 71 1023.9
20260502101541 -1 87 0.0 0.0 0.00 0.00 0.00 69 1023.7
20260502101039 -1 85 1.6 1.6 0.00 0.00 0.00 66 1023.4
20260502100537 -1 94 0.0 0.0 0.00 0.00 0.00 67 1023.4
20260502091512 0 85 0.0 0.0 0.00 0.00 0.00 63 1023.3
20260502091009 0 83 0.0 0.0 0.00 0.00 0.00 62 1022.9
20260502090505 0 75 0.0 0.0 0.00 0.00 0.00 62 1023.2
20260502071400 2 94 0.0 0.0 0.00 0.00 0.00 52 1022.7
20260502070858 2 103 0.0 1.6 0.00 0.00 0.00 51 1022.8
20260502070356 2 103 0.0 0.0 0.00 0.00 0.00 51 1022.7
20260502065855 2 84 0.0 1.6 0.00 0.00 0.00 51 1022.7
20260502065352 2 90 0.0 0.0 0.00 0.00 0.00 50 1022.7
20260502064850 2 97 0.0 0.0 0.00 0.00 0.00 49 1022.6
20260502064348 3 103 0.0 0.0 0.00 0.00 0.00 49 1022.5
20260502063844 3 88 0.0 0.0 0.00 0.00 0.00 48 1022.3
20260502063342 3 95 0.0 0.0 0.00 0.00 0.00 47 1022.5
20260502062839 3 91 0.0 0.0 0.00 0.00 0.00 47 1022.5
20260502062337 3 91 1.6 3.2 0.00 0.00 0.00 46 1022.6
20260502061836 3 101 3.2 3.2 0.00 0.00 0.00 45 1022.3
20260502061333 3 103 3.2 4.8 0.00 0.00 0.00 45 1022.5
20260502060829 3 68 1.6 3.2 0.00 0.00 0.00 46 1022.3
20260502060324 4 101 1.6 1.6 0.00 0.00 0.00 45 1022.2
20260502055822 4 80 0.0 0.0 0.00 0.00 0.00 44 1022.2
20260502055320 4 101 1.6 1.6 0.00 0.00 0.00 43 1022.2
20260502054819 4 95 0.0 1.6 0.00 0.00 0.00 43 1022.2
20260502054316 5 86 0.0 0.0 0.00 0.00 0.00 43 1022.3
20260502053813 5 89 0.0 0.0 0.00 0.00 0.00 43 1022.1
20260502053310 5 89 1.6 3.2 0.00 0.00 0.00 42 1022.2
20260502052808 5 97 1.6 3.2 0.00 0.00 0.00 41 1022.1
20260502052306 5 99 1.6 1.6 0.00 0.00 0.00 42 1022.0
20260502051804 5 83 0.0 0.0 0.00 0.00 0.00 42 1022.0
20260502051302 5 96 4.8 4.8 0.00 0.00 0.00 40 1022.0
20260502050758 5 104 0.0 0.0 0.00 0.00 0.00 39 1021.8
20260502050254 5 93 0.0 0.0 0.00 0.00 0.00 39 1022.0
20260502045752 5 111 0.0 1.6 0.00 0.00 0.00 39 1021.8
20260502045248 6 95 0.0 0.0 0.00 0.00 0.00 39 1022.0
20260502044745 6 106 0.0 1.6 0.00 0.00 0.00 38 1021.8
20260502044241 6 96 1.6 1.6 0.00 0.00 0.00 37 1021.8
20260502043739 6 111 0.0 0.0 0.00 0.00 0.00 38 1021.8
20260502043236 6 98 1.6 4.8 0.00 0.00 0.00 37 1021.8
20260502042735 6 67 1.6 3.2 0.00 0.00 0.00 37 1021.7
20260502042233 6 93 3.2 4.8 0.00 0.00 0.00 37 1021.5
20260502041731 6 95 0.0 1.6 0.00 0.00 0.00 38 1021.6
20260502041228 6 129 3.2 4.8 0.00 0.00 0.00 38 1021.6
20260502040725 6 90 6.4 9.7 0.00 0.00 0.00 38 1021.7
20260502040221 6 92 4.8 6.4 0.00 0.00 0.00 38 1021.5
20260502035717 6 115 1.6 3.2 0.00 0.00 0.00 37 1021.5
20260502035215 7 90 0.0 1.6 0.00 0.00 0.00 36 1021.7
20260502034712 7 85 1.6 3.2 0.00 0.00 0.00 36 1021.5
20260502034210 7 69 6.4 9.7 0.00 0.00 0.00 36 1021.5
20260502033708 7 66 1.6 3.2 0.00 0.00 0.00 35 1021.5
20260502033206 7 112 4.8 4.8 0.00 0.00 0.00 35 1021.2
20260502032702 7 113 6.4 6.4 0.00 0.00 0.00 35 1021.2
20260502032157 8 114 3.2 4.8 0.00 0.00 0.00 33 1021.0
20260502031656 8 94 3.2 3.2 0.00 0.00 0.00 32 1021.1
20260502031153 8 117 1.6 1.6 0.00 0.00 0.00 31 1020.9
20260502030652 8 103 0.0 0.0 0.00 0.00 0.00 31 1020.9
20260502030150 8 102 4.8 4.8 0.00 0.00 0.00 30 1021.0
20260502025646 8 37 1.6 1.6 0.00 0.00 0.00 30 1020.6
20260502025144 9 103 0.0 1.6 0.00 0.00 0.00 30 1020.4
20260502024642 9 89 4.8 4.8 0.00 0.00 0.00 30 1020.5
20260502024140 9 98 1.6 3.2 0.00 0.00 0.00 30 1020.5
20260502023638 9 115 3.2 4.8 0.00 0.00 0.00 30 1020.5
20260502023135 10 78 4.8 4.8 0.00 0.00 0.00 30 1020.5
20260502022632 10 99 0.0 1.6 0.00 0.00 0.00 29 1020.3
20260502022129 11 87 1.6 1.6 0.00 0.00 0.00 27 1020.3
20260502021626 11 75 0.0 1.6 0.00 0.00 0.00 27 1020.5
20260502021123 12 101 1.6 1.6 0.00 0.00 0.00 25 1020.2
20260502020621 13 101 0.0 0.0 0.00 0.00 0.00 24 1020.3
20260502020117 14 92 0.0 0.0 0.00 0.00 0.00 22 1020.3
20260502015615 14 129 0.0 0.0 0.00 0.00 0.00 17 1020.2
20260502015111 15 137 0.0 1.6 0.00 0.00 0.00 17 1020.4
20260502014608 16 144 0.0 1.6 0.00 0.00 0.00 16 1020.0
20260502014106 16 187 1.6 1.6 0.00 0.00 0.00 15 1020.0
20260502013600 17 231 3.2 4.8 0.00 0.00 0.00 15 1020.0
20260502013057 17 218 3.2 3.2 0.00 0.00 0.00 13 1020.2
20260502012555 16 185 1.6 1.6 0.00 0.00 0.00 14 1020.2
20260502012053 17 237 4.8 4.8 0.00 0.00 0.00 13 1020.2
20260502011549 17 217 1.6 1.6 0.00 0.00 0.00 13 1020.2
20260502011045 17 211 1.6 3.2 0.00 0.00 0.00 14 1020.2
20260502010543 17 155 1.6 1.6 0.00 0.00 0.00 13 1020.3
20260502010039 17 231 1.6 1.6 0.00 0.00 0.00 13 1020.2
20260502005537 18 101 3.2 3.2 0.00 0.00 0.00 13 1020.3
20260502005034 18 130 1.6 1.6 0.00 0.00 0.00 13 1020.2
20260502004530 18 153 0.0 0.0 0.00 0.00 0.00 14 1019.9
20260502004027 18 206 3.2 3.2 0.00 0.00 0.00 13 1020.2
20260502003525 17 228 3.2 3.2 0.00 0.00 0.00 12 1020.2
20260502003021 18 216 3.2 4.8 0.00 0.00 0.00 13 1019.8
20260502002518 18 148 1.6 1.6 0.00 0.00 0.00 14 1019.9
20260502002015 18 118 0.0 1.6 0.00 0.00 0.00 13 1020.2
20260502001513 18 92 0.0 1.6 0.00 0.00 0.00 13 1019.9
20260502001010 17 96 1.6 3.2 0.00 0.00 0.00 13 1020.2
20260502000508 18 226 3.2 3.2 0.00 0.00 0.00 14 1020.2
20260502000005 19 218 1.6 3.2 0.00 0.00 0.00 12 1020.0
20260501235500 18 114 0.0 1.6 0.00 0.00 0.00 13 1020.2
20260501234955 18 125 0.0 1.6 0.00 0.00 0.00 13 1020.3
20260501234452 17 287 3.2 3.2 0.00 0.00 0.00 13 1020.3
20260501233951 17 90 3.2 3.2 0.00 0.00 0.00 13 1020.4
20260501233448 18 82 6.4 9.7 0.00 0.00 0.00 13 1019.9
20260501232944 19 70 0.0 1.6 0.00 0.00 0.00 14 1020.2
20260501232441 20 97 0.0 0.0 0.00 0.00 0.00 12 1020.4
20260501231938 18 108 0.0 1.6 0.00 0.00 0.00 13 1020.2
20260501231437 18 165 1.6 3.2 0.00 0.00 0.00 15 1020.2
20260501230934 18 259 4.8 4.8 0.00 0.00 0.00 14 1020.3
20260501230433 19 80 3.2 4.8 0.00 0.00 0.00 13 1020.0
20260501225930 18 219 3.2 3.2 0.00 0.00 0.00 14 1020.3
20260501225428 19 103 1.6 1.6 0.00 0.00 0.00 13 1020.4
20260501224923 20 93 1.6 1.6 0.00 0.00 0.00 13 1020.3
20260501224421 18 103 0.0 1.6 0.00 0.00 0.00 13 1020.4
20260501223918 18 267 3.2 3.2 0.00 0.00 0.00 14 1020.4
20260501223414 18 233 3.2 4.8 0.00 0.00 0.00 15 1020.4
20260501222910 18 113 3.2 3.2 0.00 0.00 0.00 14 1020.3
20260501222407 17 105 1.6 1.6 0.00 0.00 0.00 15 1020.4
20260501221903 17 63 4.8 4.8 0.00 0.00 0.00 14 1020.5
20260501221401 18 101 1.6 3.2 0.00 0.00 0.00 14 1020.5
20260501220859 17 200 1.6 1.6 0.00 0.00 0.00 14 1020.6
20260501220356 18 239 4.8 4.8 0.00 0.00 0.00 13 1020.9
20260501215852 18 91 0.0 1.6 0.00 0.00 0.00 13 1020.8
20260501215348 18 145 1.6 1.6 0.00 0.00 0.00 14 1020.6
20260501214844 19 94 3.2 3.2 0.00 0.00 0.00 13 1021.1
20260501214340 19 98 0.0 1.6 0.00 0.00 0.00 14 1021.0
20260501213836 18 283 0.0 0.0 0.00 0.00 0.00 14 1021.2
20260501213332 18 104 3.2 3.2 0.00 0.00 0.00 13 1021.2
20260501212828 17 88 1.6 1.6 0.00 0.00 0.00 14 1021.1
20260501212325 18 102 0.0 1.6 0.00 0.00 0.00 14 1021.0
20260501211822 17 90 3.2 3.2 0.00 0.00 0.00 15 1021.4
20260501211320 17 87 3.2 4.8 0.00 0.00 0.00 14 1021.4
20260501210816 17 101 3.2 4.8 0.00 0.00 0.00 14 1021.4
20260501210314 17 90 1.6 3.2 0.00 0.00 0.00 14 1021.4
20260501205809 17 126 1.6 1.6 0.00 0.00 0.00 16 1021.4
20260501205307 16 224 3.2 3.2 0.00 0.00 0.00 17 1021.4
20260501204803 16 256 4.8 6.4 0.00 0.00 0.00 16 1021.6
20260501204300 16 209 3.2 4.8 0.00 0.00 0.00 16 1021.4
20260501203756 16 244 6.4 6.4 0.00 0.00 0.00 15 1021.6
20260501203254 17 252 4.8 6.4 0.00 0.00 0.00 14 1021.6
20260501202751 17 188 0.0 1.6 0.00 0.00 0.00 15 1021.6
20260501202247 16 84 1.6 1.6 0.00 0.00 0.00 13 1021.5
20260501201744 16 99 3.2 4.8 0.00 0.00 0.00 15 1021.6
20260501201241 16 110 1.6 1.6 0.00 0.00 0.00 16 1021.7
20260501200738 16 109 4.8 4.8 0.00 0.00 0.00 17 1021.6
20260501200235 16 99 1.6 3.2 0.00 0.00 0.00 17 1021.7
20260501195732 16 221 1.6 3.2 0.00 0.00 0.00 17 1021.7
20260501195228 16 167 3.2 3.2 0.00 0.00 0.00 18 1021.6
20260501194724 16 100 4.8 4.8 0.00 0.00 0.00 17 1021.8
20260501194220 16 193 3.2 3.2 0.00 0.00 0.00 19 1021.8
20260501193717 16 112 1.6 3.2 0.00 0.00 0.00 17 1021.7
20260501193215 15 120 1.6 1.6 0.00 0.00 0.00 19 1021.7
20260501192713 15 74 1.6 1.6 0.00 0.00 0.00 17 1022.0
20260501192210 15 62 3.2 3.2 0.00 0.00 0.00 17 1021.8
20260501191707 16 106 1.6 1.6 0.00 0.00 0.00 17 1022.0
20260501191204 15 99 0.0 1.6 0.00 0.00 0.00 17 1022.2
20260501190700 15 40 1.6 1.6 0.00 0.00 0.00 19 1022.1
20260501190156 15 90 3.2 3.2 0.00 0.00 0.00 19 1022.1
20260501185652 14 82 4.8 6.4 0.00 0.00 0.00 19 1022.0
20260501185147 15 156 1.6 1.6 0.00 0.00 0.00 20 1022.3
20260501184644 15 98 0.0 1.6 0.00 0.00 0.00 19 1022.0
20260501184139 15 75 1.6 1.6 0.00 0.00 0.00 18 1022.2
20260501183636 14 282 3.2 3.2 0.00 0.00 0.00 19 1022.3
20260501183132 13 111 0.0 0.0 0.00 0.00 0.00 19 1022.5
20260501182629 13 153 1.6 1.6 0.00 0.00 0.00 21 1022.5
20260501182125 14 207 3.2 3.2 0.00 0.00 0.00 19 1022.7
20260501181623 13 114 1.6 3.2 0.00 0.00 0.00 20 1022.8
20260501181120 13 154 3.2 3.2 0.00 0.00 0.00 22 1022.8
20260501180618 13 230 1.6 1.6 0.00 0.00 0.00 20 1022.7
20260501180114 12 177 3.2 3.2 0.00 0.00 0.00 27 1022.7
20260501175611 13 247 6.4 6.4 0.00 0.00 0.00 26 1022.8
20260501175108 13 123 0.0 1.6 0.00 0.00 0.00 25 1022.9
20260501174604 13 97 1.6 1.6 0.00 0.00 0.00 26 1022.8
20260501174102 12 102 0.0 0.0 0.00 0.00 0.00 26 1023.2
20260501173559 11 61 3.2 4.8 0.00 0.00 0.00 28 1023.1
20260501173055 12 244 0.0 0.0 0.00 0.00 0.00 29 1023.2
20260501172551 11 88 3.2 3.2 0.00 0.00 0.00 32 1023.1
20260501172047 11 95 1.6 1.6 0.00 0.00 0.00 34 1023.2